Regional Weather Roundup
Issued by NWS

Home | Current Version | Previous Version | Graphics & Text | Print | Product List | Glossary On
Versions: 1 2 3 4 5 6 7 8 9 10 11 12 13 14 15 16 17 18 19 20 21 22 23 24 25 26 27 28 29 30 31 32 33 34 35 36 37 38 39 40 41 42 43 44 45 46 47 48 49 50
898
ASUS43 KDTX 101501
RWRMI
MICHIGAN HOURLY REGIONAL WEATHER ROUNDUP
NATIONAL WEATHER SERVICE DETROIT/PONTIAC MI
1000 AM EST WED FEB 10 2016

NOTE: "FAIR" INDICATES FEW OR NO CLOUDS BELOW 12,000 FEET WITH NO
SIGNIFICANT WEATHER AND/OR OBSTRUCTION TO VISIBILITY.

MIZ047>049-052>055-059>063-066>070-074>076-081>083-101600-
SOUTHEAST LOWER MICHIGAN

CITY           SKY/WX    TMP DP  RH WIND       PRES   REMARKS
ADRIAN         FLURRIES  20  12  71 NW12      29.84R WCI   8
ALMA           CLOUDY    19  10  67 NW14      29.84R WCI   5
ANN ARBOR      LGT SNOW  19  12  74 NW15      29.81R WCI   5
BAD AXE        LGT SNOW  13  10  84 NW12      29.78R WCI   0
DETROIT CITY   CLOUDY    20  10  65 NW10      29.80R WCI   9
DETROIT        LGT SNOW  21  14  73 NW12      29.82R WCI   9
FLINT          LGT SNOW  19  11  70 NW13      29.81R WCI   6
GROSSE ILE     LGT SNOW  21  18  86 W7        29.80R VSB 1   WCI  13
HILLSDALE      FLURRIES  18  11  71 NW12      29.82R WCI   6
HOWELL         FLURRIES  18  11  75 NW10      29.80R WCI   6

CITY           SKY/WX    TMP DP  RH WIND       PRES   REMARKS
JACKSON        CLOUDY    19  10  68 NW15      29.82R WCI   5
LAMBERTVILLE   CLOUDY    21  13  71 W9        29.85R WCI  11
LANSING        CLOUDY    18   6  59 NW16G25   29.84R WCI   3
LAPEER         CLOUDY    15   8  75 NW12G17   29.79R WCI   1
MASON          CLOUDY    18   7  62 NW16G22   29.83R WCI   3
MONROE         CLOUDY    21  12  67 W15       29.82R WCI   8
MT. CLEMENS    FLURRIES  19   9  65 NW16G26   29.78R WCI   4
PONTIAC        LGT SNOW  17  11  77 NW13      29.77R WCI   4
PORT HOPE        N/A     14  10  84 NW17G28   29.75R WCI  -3
PORT HURON     LGT SNOW  16  10  79 NW12G21   29.78R WCI   3
TRI CITIES     CLOUDY    16   7  67 N12       29.83R HAZE    WCI   3
MIDLAND        CLOUDY    16   5  63 NW7       29.83R WCI   6
TROY           LGT SNOW  20  13  74 NW9       29.81R WCI   9
SAGINAW HB     LGT SNOW  16  10  79 NW10      29.83R WCI   3
$$
MIZ043>046-050>051-056>058-064>065-071>073-077>080-101600-
SOUTHWEST LOWER MICHIGAN

CITY           SKY/WX    TMP DP  RH WIND       PRES   REMARKS
BATTLE CREEK   CLOUDY    18   9  68 NW16      29.86R WCI   3
BENTON HARBOR  LGT SNOW  20  11  68 NW10G21   29.94R WCI   9
BIG RAPIDS     LGT SNOW  16  11  80 NW7G16    29.83R WCI   6
COLDWATER      LGT SNOW  19  14  81 NW7       29.86R WCI  10
FREMONT        CLOUDY    17   6  62 NW15G21   29.88R WCI   2
HOLLAND        SNOW      18  13  80 NW12G20   29.91R VSB 1/2 WCI   5
GRAND RAPIDS   FLURRIES  19  10  68 NW13      29.87R WCI   6
IONIA          LGT SNOW  17  11  78 NW6       29.85R WCI   9
KALAMAZOO      LGT SNOW  18  12  77 NW9       29.88R WCI   7
LUDINGTON      LGT SNOW  15   7  69 NW14G21   29.91R WCI   1
MARSHALL       CLOUDY    20  10  65 NW12      29.84R WCI   8
MOUNT PLEASANT CLOUDY    18   7  62 NW9G16    29.83R WCI   7
MUSKEGON       LGT SNOW  18  10  71 N14       29.92R VSB 1   WCI   4
SOUTH HAVEN    CLOUDY    20  12  69 NW15G24   29.92R HAZE    WCI   6
$$
MIZ016>042-101600-
NORTHERN LOWER MICHIGAN

CITY           SKY/WX    TMP DP  RH WIND       PRES   REMARKS
ALPENA         LGT SNOW   9   3  77 NW12      29.79R WCI  -6
BEAVER ISLAND  CLOUDY    11   2  67 N13G21    29.87R HAZE    WCI  -4
BELLAIRE       CLOUDY    15   4  63 N7G16     29.86R WCI   5
CADILLAC       LGT SNOW  14   7  74 NW12      29.78R WCI   1
CHARLEVOIX     SNOW      13   9  84 N12G20    29.88R VSB 1/2 WCI  -1
FRANKFORT      LGT SNOW  15  10  78 NW14G20   29.89R WCI   1
GAYLORD        CLOUDY     9  -2  61 N9        29.76R WCI  -4
GRAYLING       CLOUDY    10   2  71 NW13      29.79R WCI  -5
HARBOR SPRINGS CLOUDY     9   0  67 N8        29.84S WCI  -3
HOUGHTON LAKE  CLOUDY    11   3  70 NW6       29.79R WCI   1
MANISTEE       CLOUDY    16   5  62 NW16      29.89R WCI   0
OSCODA         CLOUDY    10   2  72 MISG      29.79R
PELLSTON       CLOUDY     9   0  67 N15       29.85R WCI  -8
ROGERS CITY    LGT SNOW   8   3  78 NW8G20    29.81R WCI  -4
TRAVERSE CITY  FLURRIES  16   5  62 N13G25    29.85R WCI   2
$$
MIZ007>008-015-101600-
EASTERN UPPER MICHIGAN

CITY           SKY/WX    TMP DP  RH WIND       PRES   REMARKS
KINROSS        SUNNY      3  -2  78 N10       29.83R WCI -12
MACKINAC ISLAN CLOUDY     7   1  75 N13G21    29.83R WCI  -9
NEWBERRY       LGT SNOW   7   3  84 N13       29.85R WCI -10
S. S. MARIE    MOSUNNY    2  -9  60 N12       29.84R WCI -15
$$
MIZ004>006-011>014-085-101600-
CENTRAL UPPER MICHIGAN

CITY           SKY/WX    TMP DP  RH WIND       PRES   REMARKS
MANISTIQUE     CLOUDY    10   3  75 N12G20    29.89R HAZE    WCI  -5
ESCANABA       MOSUNNY    9  -2  61 NW18G24   29.95R WCI -10
MENOMINEE      SUNNY      9  -6  52 NW16G25   29.99R WCI  -9
SAWYER-GWINN   LGT SNOW   5   0  78 NW17G23   29.89  VSB 1   WCI -14
$$
MIZ001>003-009>011-084-101600-
WESTERN UPPER MICHIGAN

CITY           SKY/WX    TMP DP  RH WIND       PRES   REMARKS
IRON MOUNTAIN  PTSUNNY    5  -6  60 NW14G24   29.96R WCI -12
HOUGHTON       HAZE       4  -2  76 N16       29.99R VSB 3/4 WCI -15
COPPER HARBOR    N/A     10   5  80 NE23G30   30.01R WCI -10
IRONWOOD       CLOUDY     5  -2  72 N7        30.00S WCI  -7
$$

ABBREVIATIONS USED IN REMARKS
   TC - TEMPERATURE IN CELSIUS
  WCI - WIND CHILL INDEX
   HX - HEAT INDEX
  VSB - VISIBILITY





USA.gov is the U.S. government's official web portal to all federal, state and local government web resources and services.